Regional Weather Roundup
Issued by NWS

Home | Current Version | Previous Version | Graphics & Text | Print | Product List | Glossary Off
Versions: 1 2 3 4 5 6 7 8 9 10 11 12 13 14 15 16 17 18 19 20 21 22 23 24 25 26 27 28 29 30 31 32 33 34 35 36 37 38 39 40 41 42 43 44 45 46 47 48 49 50

000
ASUS43 KTOP 281608
RWRKS

WEATHER ROUNDUP FOR KANSAS
NATIONAL WEATHER SERVICE GOODLAND KS
1100 AM CDT SAT MAR 28 2015

NOTE:  "FAIR" INDICATES FEW OR NO CLOUDS BELOW 12,000 FEET WITH NO
SIGNIFICANT WEATHER AND/OR OBSTRUCTIONS TO VISIBILITY.

KSZ001>006-013>018-027>032-041>047-281700-
NORTHWEST KANSAS

CITY           SKY/WX    TMP DP  RH WIND       PRES   REMARKS
GOODLAND       SUNNY     65  31  28 CALM      30.03F
HAYS           SUNNY     54  36  50 E10       30.04S
HILL CITY      SUNNY     52  34  50 E5        30.04S
RUSSELL        SUNNY     52  36  54 NE10      30.03R
$$

KSZ061>065-074>080-084>089-281700-
SOUTHWEST KANSAS

CITY           SKY/WX    TMP DP  RH WIND       PRES   REMARKS
DODGE CITY     SUNNY     66  37  34 NE9       30.03R
ELKHART          N/A     70  39  32 W9          N/A
GARDEN CITY    SUNNY     63  37  38 NE9       30.03R
GREAT BEND     SUNNY     54  39  58 NE8       30.03S
LIBERAL        SUNNY     64  39  39 NW12      30.05R
PRATT          SUNNY     59  36  41 NE8       30.03R
$$

KSZ066>073-081>083-090>101-281700-
SOUTHEAST KANSAS

CITY           SKY/WX    TMP DP  RH WIND       PRES   REMARKS
CHANUTE        SUNNY     52  34  50 E13       30.10S
COFFEYVILLE    SUNNY     56  38  50 S12       30.08F
HUTCHINSON     SUNNY     56  37  49 E7        30.04R
MEDICINE LODGE   N/A     63  41  44 NE9       30.00R
NEWTON         SUNNY     52  34  50 E3        30.06R
PARSONS        SUNNY     53  37  54 VRB7      30.10S
WICHITA INTL   MOSUNNY   54  39  57 CALM      30.03R
WICHITA JABRA  SUNNY     54  38  54 S5        30.03S
WICHITA MCCONL SUNNY     55  39  56 SE3       30.03S
WINFIELD       SUNNY     58  42  55 S8        30.04S
$$

KSZ007>012-019>026-033>040-048>060-102>105-281700-
NORTHEAST KANSAS

CITY           SKY/WX    TMP DP  RH WIND       PRES   REMARKS
CONCORDIA      SUNNY     48  30  49 E9        30.07R
EMPORIA        SUNNY     50  31  48 SE12      30.08R
LAWRENCE       SUNNY     47  27  45 SE21G26   30.16R
MANHATTAN      SUNNY     50  31  48 SE8       30.10R
MARYSVILLE     SUNNY     46  30  53 SE10G17   30.11R
OLATHE IND     PTSUNNY   43  28  55 E14G22    30.17R
OLATHE EXE     CLOUDY    42  29  59 E16       30.16R
SALINA         SUNNY     52  35  52 VRB6      30.06R
TOPEKA BILLARD SUNNY     48  28  46 E17       30.15R
TOPEKA FORBES  SUNNY     48  28  46 SE13G21   30.12R
$$



USA.gov is the U.S. government's official web portal to all federal, state and local government web resources and services.